STARLINK-2216

Last updated on Sat Apr 24 2021 00:02:02 GMT+0000 (Coordinated Universal Time)

1 48012U 21024AM 21113.25001157 .00077168 00000-0 54947-3 0 9994 2 48012 53.0488 55.6712 0001307 80.1084 86.0495 15.73184474 1820

Satellite not in orbit